Location: Newark
(47.5000°N, 4.6167°E)
Time: 12:29:08
(UTC+00:00)

BlueWalker 3 - Visible Passes

Search period start: 02 December 2022 00:00
Search period end: 12 December 2022 00:00
Orbit: 500 x 519 km, 53.2° (Epoch: 01 December)

Date Brightness Start Highest point End Pass type
(mag) Time Alt. Az. Time Alt. Az. Time Alt. Az.
02 Dec 2.9 17:37:34 10° WNW 17:41:11 34° N 17:41:59 31° NNE visible
02 Dec 5.1 19:16:30 10° WNW 19:16:48 12° WNW 19:16:48 12° WNW visible
03 Dec 2.9 17:19:12 10° WNW 17:22:49 34° N 17:24:20 25° NE visible
03 Dec 4.6 18:58:06 10° WNW 18:59:10 17° NW 18:59:10 17° NW visible
04 Dec 2.9 17:00:50 10° WNW 17:04:28 34° N 17:06:44 19° ENE visible
04 Dec 3.9 18:39:43 10° WNW 18:41:33 26° NW 18:41:33 26° NW visible
05 Dec 2.9 16:42:27 10° WNW 16:46:05 35° N 16:49:10 13° ENE visible
05 Dec 3.0 18:21:19 10° WNW 18:24:00 40° NW 18:24:00 40° NW visible
06 Dec 2.8 16:24:04 10° WNW 16:27:42 35° N 16:31:19 10° ENE visible
06 Dec 2.1 18:02:55 10° WNW 18:06:30 63° N 18:06:30 63° N visible
07 Dec 1.9 17:44:31 10° WNW 17:48:25 70° NNE 17:49:06 55° E visible
07 Dec 5.2 19:23:33 10° W 19:23:57 12° W 19:23:57 12° W visible
08 Dec 1.9 17:26:06 10° WNW 17:30:00 73° NNE 17:31:50 30° ESE visible
08 Dec 4.7 19:05:10 10° W 19:06:41 18° W 19:06:41 18° W visible
09 Dec 1.9 17:07:40 10° WNW 17:11:36 76° NNE 17:14:44 15° ESE visible
09 Dec 4.1 18:46:48 10° W 18:49:36 23° SW 18:49:36 23° SW visible
10 Dec 1.9 16:49:15 10° WNW 16:53:11 80° NNE 16:57:04 10° ESE visible
10 Dec 4.2 18:28:26 10° W 18:31:29 22° SW 18:32:45 19° SSW visible
11 Dec 1.9 16:30:49 10° WNW 16:34:45 83° NNE 16:38:39 10° ESE visible
11 Dec 4.4 18:10:04 10° W 18:13:02 21° SW 18:15:58 10° S visible
